Погода в Блан-Саблоне

Канада     51°25′33″N   57°07′43″W
темп.,
°C
ветер,
м/с
пор.,
м/с
влажн.,
%
обл.,
%
осадки,
мм/ч
давл.,
гПа
погр.,
м
10 апреля, сб
сб1023:00−2с71478100 0.0 1016553
02:00−4с61378100 0.0 1014549
05:00−5с81778100 0.0 1012477
08:00−3с111980100 0.0 1010589
11:000с7118899 0.0 1009564
14:00+1с61090100 0.0 1008427
17:000с5996100 0.1 1007343
20:00+2св101696100 2.2 1007387
11 апреля, вс
вс1123:00+3св132298100 0.6 1007397
02:00+3св152497100 0.7 1008476
05:00+4св162597100 0.2 1010482
08:00+4св152497100 0.8 1012499
11:00+5св132296100 2.4 1013480
14:00+5св132294100 4.6 1014450
17:00+5св12229335 0.1 1016458
20:00+5св11208999 0.1 1018382
12 апреля, пн
пн1223:00+4св112090100 0.1 1019397
02:00+4св11208394 0.1 1020426
05:00+4св1121794 0.0 1020432
08:00+5св1320774 0.0 1022686
11:00+7св1317745 0.0 10221021
14:00+8всв1317675 0.0 10221145
17:00+6всв1217715 0.0 10221087
20:00+3св1017847 0.0 1024533
13 апреля, вт
вт1323:00+2св11168849 0.0 1023435
02:00+1св10148097 0.0 1023612
05:000св11157898 0.0 1024684
08:00+2св11146977 0.0 1023817
11:00+5св1012585 0.0 1022930
14:00+7св911450 0.0 10211096
17:00+6св911430 0.0 1020946
20:00+3ссв712520 0.0 1020404
14 апреля, ср
ср1423:00+2с34610 0.0 101880
02:00+1ссз23620 0.0 101634
05:00+1ссз22620 0.0 101433
08:00+4ссв710510 0.0 1014611
11:00+8ссв910420 0.0 1013947
14:00+8ссв1112430 0.0 10131150
17:00+5ссв1315607 0.0 10151004
20:00+1ссв1015615 0.0 1018884